Content
SEND FEEDBACK

Daily
Averages
Monthly
Summary
United States of America

WAHWEAP, ARIZONA


Home > North America > United States > Arizona
Elevation: 3703 feet     Latitude: 36 59N     Longitude: 111 29W

WEATHER
 
SELECT A DAY
Number of Records: 194,702;   Date Range: 1/1/95 - 7/26/14
 
SHARE

PRINT THIS DATA

[ ← Previous Day ]
WEATHER ALMANAC - DECEMBER 25, 2013
[ Next Day → ]
[ °C ]   °F
Weather ElementAverageHighLow
Temperature36.2 °F46 °F (2:53 pm)28 °F (7:53 am)
Dewpoint18.9 °F24.1 °F (10:53 am)15.1 °F (5:53 pm)
Humidity50.6 %69 % (7:53 am)33 % (2:53 pm)
Barometer30.45 in30.51 in (7:53 am)30.40 in (2:53 am)
Wind Speed2 mph5.8 mph (10:53 pm)
Weather ElementAverage
Visibility8.7 mi
Wind DirectionE (89.2 °)

Weather ElementTotal
Precipitation---
Heating Degree Days28 (Base 65)
Averaged from 25 records on December 25, 2013
WEATHER CONDITIONS BREAKOUT
WIND DIRECTION BREAKOUT
WEATHER BY HOUR - DECEMBER 25, 2013
[ °C ]   °F
Local TimeTemperatureDewpointHumidityBarometerVisibilityWind DirectionWind SpeedGust SpeedPrecipitationEventsConditions
1:53 AM33.1 °F21.9 °F64 %30.41 in10.0 miSouth (180°)3.5 mphClear
2:53 AM35.1 °F19.9 °F54 %30.40 in10.0 miNW (310°)4.6 mphClear
3:53 AM32.0 °F19.9 °F61 %30.42 in10.0 miWest (280°)4.6 mphClear
4:53 AM30.0 °F19.9 °F66 %30.43 in7.0 miCalmClear
5:53 AM30.9 °F19.0 °F61 %30.45 in10.0 miCalmClear
6:53 AM30.0 °F19.0 °F64 %30.48 in10.0 miCalmClear
7:53 AM28.0 °F19.0 °F69 %30.51 in8.0 miCalmClear
8:53 AM34.0 °F21.0 °F59 %30.50 in8.0 miCalmClear
9:53 AM37.9 °F21.9 °F53 %30.51 in10.0 miCalmClear
10:53 AM39.9 °F24.1 °F53 %30.51 in10.0 miCalmClear
11:53 AM43.0 °F21.9 °F43 %30.49 in10.0 miNorth (10°)3.5 mphClear
12:53 PM44.1 °F21.0 °F40 %30.44 in10.0 miCalmClear
1:53 PM44.1 °F21.9 °F42 %30.43 in10.0 miNorth (350°)3.5 mphClear
2:53 PM46.0 °F18.0 °F33 %30.40 in10.0 miNE (50°)4.6 mphClear
3:53 PM46.0 °F19.0 °F34 %30.41 in10.0 miNE (50°)3.5 mphClear
4:53 PM44.1 °F17.1 °F34 %30.43 in10.0 miNorth (350°)4.6 mphClear
5:53 PM39.9 °F15.1 °F36 %30.44 in10.0 miSE (130°)3.5 mphClear
6:53 PM37.0 °F17.1 °F44 %30.46 in9.0 miCalmClear
7:53 PM36.0 °F18.0 °F48 %30.48 in6.0 miSSE (160°)3.5 mphHaze
8:53 PM36.0 °F17.1 °F46 %30.46 in9.0 miSSW (210°)4.6 mphClear
9:53 PM33.1 °F17.1 °F52 %30.46 in10.0 miCalmClear
10:53 PM32.0 °F16.0 °F52 %30.47 in10.0 miSSE (150°)5.8 mphClear
11:33 PM30.9 °F15.1 °F52 %30.45 in1.8 miCalmHaze
11:40 PM32.0 °F16.0 °F52 %30.45 in3.0 miCalmHaze
11:53 PM30.9 °F16.0 °F54 %30.47 in5.0 miCalmHaze
Hourly data recorded from KPGA, located miles away from Wahweap, Arizona







STORIES FROM OUR PARTNERS